Location: McFarlands Corners
(41.4117°N, 81.3382°W)
Time: 21:02:01
(UTC+00:00)

Vanguard 2 - Visible Passes

Search period start: 17 February 2026 00:00
Search period end: 27 February 2026 00:00
Orbit: 553 x 2897 km, 32.9° (Epoch: 17 February)

Date Brightness Start Highest point End Pass type
(mag) Time Alt. Az. Time Alt. Az. Time Alt. Az.
17 Feb 9.8 10:19:53 10° SSW 10:23:00 14° SSE 10:25:38 10° SE visible
18 Feb 9.5 10:30:57 11° SSW 10:34:54 19° SSE 10:38:12 10° ESE visible
19 Feb 9.2 10:42:24 11° SW 10:46:48 23° S 10:50:28 10° ESE visible
20 Feb 10.2 08:52:49 14° SE 08:52:49 14° SE 08:54:28 10° SE visible
20 Feb 9.0 10:53:45 11° SW 10:58:41 27° S 11:02:35 10° ESE visible
21 Feb 9.9 09:04:07 20° SSE 09:04:07 20° SSE 09:07:08 10° ESE visible
21 Feb 8.8 11:05:04 10° WSW 11:10:34 31° S 11:14:34 10° ESE visible
22 Feb 9.6 09:15:22 25° SSE 09:15:22 25° SSE 09:19:28 10° ESE visible
22 Feb 8.7 11:16:47 10° WSW 11:22:26 33° S 11:26:30 10° ESE visible
23 Feb 9.3 09:26:35 31° S 09:26:35 31° S 09:31:38 10° ESE visible
23 Feb 8.7 11:28:36 10° WSW 11:34:18 33° S 11:38:22 10° ESE visible
24 Feb 9.1 09:37:44 34° S 09:38:28 35° S 09:43:40 10° ESE visible
25 Feb 10.7 07:47:56 11° ESE 07:47:56 11° ESE 07:48:14 10° ESE visible
25 Feb 8.9 09:48:51 35° SSW 09:50:22 39° S 09:55:38 10° ESE visible
26 Feb 10.5 07:59:02 16° ESE 07:59:02 16° ESE 08:00:28 10° ESE visible
26 Feb 8.8 09:59:57 34° SW 10:02:14 41° S 10:07:33 10° ESE visible
